This demonstration page uses our WeatherBlox Daily Observations layout. Learn more.

38.88101, -77.10428

Hourly Observations for March 12, 2015

Temp ( °F °C ) Dew Point ( °F °C ) Humidity (%) Winds ( mph kmh ) Pressure ( in mb ) Visibility ( mi km ) Precip ( " mm )
12:52 am 00:52 Clear 49 9.4 28 -2.2 44 44 NNW 7 11 30.27 1025 10 16.0934 0 0
1:52 am 01:52 Clear 50 10 28 -2.2 43 43 NW 10 17 30.27 1025 10 16.0934 0 0
2:52 am 02:52 Mostly Clear 48 8.9 27 -2.8 44 44 NW 12 19 30.29 1026 10 16.0934 0 0
3:52 am 03:52 Partly Cloudy 47 8.3 26 -3.3 44 44 NW 14 22 30.29 1026 10 16.0934 0 0
4:52 am 04:52 Mostly Clear 46 7.8 25 -3.9 44 44 NNW 9 15 30.32 1027 10 16.0934 0 0
5:52 am 05:52 Mostly Clear 46 7.8 23 -5 40 40 NNW 14 22 30.35 1028 10 16.0934 0 0
6:52 am 06:52 Partly Cloudy 46 7.8 23 -5 40 40 NNW 10 17 30.39 1029 10 16.0934 0 0
7:52 am 07:52 Partly Cloudy 46 7.8 24 -4.4 42 42 NNW 9 15 30.43 1030 10 16.0934 0 0
8:52 am 08:52 Partly Cloudy 48 8.9 24 -4.4 39 39 NNW 13 20 30.46 1032 10 16.0934 0 0
9:52 am 09:52 Partly Cloudy 50 10 23 -5 35 35 NNW 13 20 30.5 1033 10 16.0934 0 0
10:52 am 10:52 Mostly Cloudy 52 11.1 22 -5.6 31 31 N 13 20 30.52 1033 10 16.0934 0 0
11:52 am 11:52 Mostly Cloudy 54 12.2 22 -5.6 29 29 N 14 22 30.53 1034 10 16.0934 0 0
12:52 pm 12:52 Mostly Cloudy 56 13.3 22 -5.6 27 27 N 15 24 30.53 1034 10 16.0934 0 0
1:52 pm 13:52 Mostly Cloudy 57 13.9 21 -6.1 25 25 N 10 17 30.53 1034 10 16.0934 0 0
2:52 pm 14:52 Partly Cloudy 59 15 22 -5.6 24 24 VRB 7 11 30.51 1033 10 16.0934 0 0
3:52 pm 15:52 Partly Cloudy 59 15 24 -4.4 26 26 N 10 17 30.5 1033 10 16.0934 0 0
4:52 pm 16:52 Mostly Cloudy 59 15 22 -5.6 24 24 N 8 13 30.5 1033 10 16.0934 0 0
5:52 pm 17:52 Mostly Cloudy 58 14.4 23 -5 26 26 N 10 17 30.51 1033 10 16.0934 0 0
6:52 pm 18:52 Mostly Cloudy 54 12.2 24 -4.4 31 31 N 6 9 30.54 1034 10 16.0934 0 0
7:52 pm 19:52 Mostly Cloudy 52 11.1 25 -3.9 35 35 NE 6 9 30.55 1035 10 16.0934 0 0
8:52 pm 20:52 Mostly Cloudy 51 10.6 25 -3.9 36 36 NE 7 11 30.57 1035 10 16.0934 0 0
9:52 pm 21:52 Partly Cloudy 49 9.4 23 -5 36 36 VRB 3 6 30.58 1036 10 16.0934 0 0
10:52 pm 22:52 Mostly Cloudy 47 8.3 20 -6.7 34 34 SE 3 6 30.58 1036 10 16.0934 0 0
11:52 pm 23:52 Mostly Cloudy 45 7.2 23 -5 42 42 Calm 30.59 1036 10 16.0934 0 0

Powered by AerisWeather